Orbital Elements at Epoch 2459000.5 (2020-May-31.0) TDB
Reference: JPL 20 (heliocentric ecliptic J2000)
Element | Value | Uncertainty (1-sigma) | Units |
e | .1184791414827586 | 5.509e-08 | |
a | 2.580549608264983 | 1.3869e-08 | au |
q | 2.274808306124079 | 1.3749e-07 | au |
i | 4.377008383815965 | 5.2578e-06 | deg |
node | 17.17846381288409 | 5.1079e-05 | deg |
peri | 14.44707211258631 | 5.3864e-05 | deg |
M | 149.8224478733627 | 1.7698e-05 | deg |
tp | 2458370.354073582460 (2018-Sep-08.85407358) | 7.3402e-05 | TDB |
period | 1514.142484856884 4.15 | 1.2206e-05 3.342e-08 | d yr |
n | .2377583375411509 | 1.9167e-09 | deg/d |
Q | 2.886290910405887 | 1.5512e-08 | au |
|
| | Orbit Determination Parameters
Additional Information
|